Network for Lightning and Thunderstorms in Real Time - Real time lightning map
Regions/Countries: current only
List of Stations for "Australia" sorted descending by Used
(Used = Number of selected signals used to compute the strike position)
StationCityCommentCountryRegionsStatusLast signalTotalValidInvolvedUsedClosestFarthest
1323SilvanAntenna approx 4m above groundAustralia / VictoriaOceania 1Offline2022-02-26 21:25178436440720563363 km5541 km
1383South Sydney, NSWAustralia / New South WalesOceania 1Offline2022-03-13 04:101571933635539333 km4666 km
2050Sandy BayU of Tas Environmental Change ...Australia / TasmaniaOceania 1Bad GPS2022-03-14 02:3634116293512147499293 km5427 km
812Albury, NSW.Primary sensorAustralia / New South WalesOceania 1Running2022-05-22 10:2840013339447363395 km5533 km
2391HeathcoteV9.2 Blue, Leon Mow Radio Obse...Australia / VictoriaOceania 1Running2022-05-22 10:2998958408403323606 km5505 km
2118BlackburnSystem Blue 19.4, H two 20cm F...Australia / VictoriaOceania 1Running2022-05-22 10:28105857405439300629 km5625 km
848Wagga Wagga, NSWAustralia / New South WalesOceania 1Running2022-05-22 10:28120257542375290332 km5716 km
2428LismoreTestingAustralia / New South WalesOceania 1Offline2021-10-26 08:541267411078268250169 km3237 km
2139Croydon SouthV9.2 Blue, clean site, quiet P...Australia / VictoriaOceania 1Running2022-05-22 10:2818371579324223608 km5629 km
1890StawellAustralia / VictoriaOceania 1Running2022-05-22 10:2813081131319212774 km5450 km
2041Tamworth3 x 20cm ferrite H field. 1 x ...Australia / New South WalesOceania 1Running2022-05-22 10:2842252913396205201 km5529 km
2953StrathalbynSHR/Hallett/CFS SBYN-02Australia / South AustraliaOceania 1Running2022-05-22 10:2518897132804091971093 km5381 km
2120Keilor ParkSystem Blue. 2x 20cm ferrites....Australia / VictoriaOceania 1Running2022-05-22 10:2821051801352191635 km5600 km
2039GerringongBlue 100mm E 2x200mm FerriteHAustralia / New South WalesOceania 1Running2022-05-22 10:282585201237018670 km5617 km
1928InverellAustralia / New South WalesOceania 1Running2022-05-22 10:2888217434385176253 km5425 km
919AcheronOnlineAustralia / VictoriaOceania 1Running2022-05-22 10:2872055921234172544 km5597 km
1263Dutton Park, Brisbane300mm loops (x 44 turns)Australia / QueenslandOceania 1Running2022-05-22 10:2836492166253167198 km5309 km
2438Athelstone (IADELA729)2 x 200mm Ferrite, 200mm E-fie...Australia / South AustraliaOceania 1Running2022-05-22 10:24503738553851531113 km5333 km
973Willetton, PerthAustralia / Western AustraliaOceania 1Running2022-05-22 10:2853743594159150235 km4762 km
1248RidgehavenRed E200mm onlyAustralia / South AustraliaOceania 1Running2022-05-22 10:281145994324261421118 km5328 km
2121CradocLoop AntennaAustralia / TasmaniaOceania 1Running2022-05-22 10:28926173722931371002 km4825 km
2418Morley, PerthAustralia / Western AustraliaOceania 1Running2022-05-22 10:24119676187159136238 km4757 km
1527CranbrookAustralia / QueenslandOceania 1Running2022-05-22 10:28186617661911281287 km4262 km
844RockinghamRebirth (temporary)Australia / Western AustraliaOceania 1Running2022-05-22 10:28104842535128124246 km3273 km
1614Newcastle20cm ferrites, E-field with 10...Australia / New South WalesOceania 1Running2022-05-22 10:2813460783736612041 km5729 km
1833KingstonLoops N-S and E-WAustralia / TasmaniaOceania 1Running2022-05-22 10:283417018592306120979 km4816 km
972KingstonTrialing AntennasAustralia / TasmaniaOceania 1Running2022-05-22 10:2822321795273116972 km4823 km
2435Hornsby, NSWSystem Blue; three-axis ferrit...Australia / New South WalesOceania 1Running2022-05-22 10:259664533120310451 km5538 km
2662Excelsior Park, Morayfield, Br...3x200mmx15mm Ferrite Rod + 150...Australia / QueenslandOceania 1Running2022-05-22 10:2554243021172104238 km5278 km
2353WhyallaMostly relying on e field ante...Australia / South AustraliaOceania 1Running2022-05-22 10:281094905248951244 km4777 km
2144Federal, NSWAustralia / New South WalesOceania 1Running2022-05-22 10:2814263105832639463 km5474 km
1694Salisbury, South Australia3 x 200mm Ferrite + 300mm E. F...Australia / South AustraliaOceania 1Running2022-05-22 10:28108545926214931131 km4933 km
1631CarinaCu pipe loop & Toroid CouplerAustralia / QueenslandOceania 1Running2022-05-22 10:2882072315989197 km5159 km
2648MaroubraAustralia / New South WalesOceania 1Running2022-05-22 10:24546116861317829 km4143 km
1593CabooltureHome sweet homeAustralia / QueenslandOceania 1Running2022-05-22 10:2810556974710976241 km5070 km
2175IronbankAustralia / South AustraliaOceania 1Interference2022-05-22 10:2883357320144751141 km5077 km
2167HeathmontAustralia / VictoriaOceania 1Running2022-05-22 10:28102450316771622 km5156 km
2332Chapel Hill,Using mag field only - 3 ortho...Australia / QueenslandOceania 1Running2022-05-22 10:299670538711966415 km5175 km
886Moffat Beach, Sunshine CoastAustralia / QueenslandOceania 1Running2022-05-22 10:289035208713055274 km5132 km
2359Moorooka, BrisbaneSystem Blue, E and 3 orthogon...Australia / QueenslandOceania 1Running2022-05-22 10:2991736888855197 km5312 km
2349Mil-LelTesting H FieldAustralia / South AustraliaOceania 1Running2022-05-22 10:29110301099811852981 km4522 km
849Corryong, VicAustralia / VictoriaOceania 1Running2022-05-22 10:283341887341326 km4065 km
1185Lewisham, NSW.Australia / New South WalesOceania 1Running2022-05-22 10:2835151547924130 km3663 km
2414Peats RidgeTemporary Install - reliably h...Australia / New South WalesOceania 1Running2022-05-22 10:25945380752414170 km5514 km
2451Wavell HeightsAustralia / QueenslandOceania 1Running2022-05-22 10:2411515378741207 km4236 km
1015Lyrup, South Australia300mm ferrite Hfield/800mm Efi...Australia / South AustraliaOceania 1Running2022-05-22 10:28330077321238940 km4739 km
1613PortarlingtonSystem blue. 100mm E-fieldAustralia / VictoriaOceania 1Running2022-05-22 10:2855050617737672 km5137 km
2281Darwin - AnulaAustralia / Northern TerritoryOceania 1Running2022-05-22 10:2963511654128361188 km3528 km
1649Kurrajong HeightsAustralia / New South WalesOceania 1Running2022-05-22 10:2884515119483174 km3725 km
2093CarlingfordH-Field External 2x200mm Ferri...Australia / New South WalesOceania 1Bad GPS2021-11-23 22:4610603633130427 km3052 km
2892Sanctuary PointAustralia / New South WalesOceania 1Running2022-05-22 10:24717157512759 km3916 km
2168Australia / Australian Capital TerritoryOceania 1Running2022-05-22 10:2812673435025176 km5258 km
2048StowportBlue 19.4, 2x 200mm ferrite, 1...Australia / TasmaniaOceania 1Offline2022-05-21 05:54112141121174201299 km3537 km
1399Brisbane Nth 1System RED H Field only 2m loo...Australia / QueenslandOceania 1Running2022-05-22 10:28155572617203 km1369 km
2342KulnuraAustralia / New South WalesOceania 1Running2022-05-22 10:241454458171468 km294 km
2081DromanaNew setup, indoors for testingAustralia / VictoriaOceania 1Interference2022-05-22 10:28821163775313664 km4086 km
1695BundabergSystem Blue. 38cm loopAustralia / QueenslandOceania 1Running2022-05-22 10:284746239500 km4188 km
2353WhyallaMostly relying on e field ante...Australia / South AustraliaJapan 1Running2022-05-22 10:251068887994283 km5667 km
2353WhyallaMostly relying on e field ante...Australia / South AustraliaAsia 1Running2022-05-22 10:251062883993737 km5010 km
2662Excelsior Park, Morayfield, Br...3x200mmx15mm Ferrite Rod + 150...Australia / QueenslandAsia 1Running2022-05-22 10:25546430511093839 km5134 km
2667Para Hills WestBack To Testing StageAustralia / South AustraliaOceania 1Running2022-05-22 10:241009522162291146 km2868 km
886Moffat Beach, Sunshine CoastAustralia / QueenslandJapan 1Running2022-05-22 10:2690152052872178 km5479 km
2553St Andrews BeachBlue - Ferrite RodsAustralia / VictoriaOceania 1Running2022-05-22 10:24135119397696 km3908 km
2896Kembla GrangeAustralia / New South WalesOceania 1Running2022-05-22 10:2458499722 km55 km
877Orchard HillsAustralia / New South WalesOceania 1Offline2021-08-19 23:123756666148 km605 km
886Moffat Beach, Sunshine CoastAustralia / QueenslandAsia 1Running2022-05-22 10:2590012044864333 km5138 km
2332Chapel Hill,Using mag field only - 3 ortho...Australia / QueenslandJapan 1Running2022-05-22 10:2695425281763316 km6492 km
2451Wavell HeightsAustralia / QueenslandAsia 1Running2022-05-22 10:2411515371162421 km4926 km
2064OrfordAustralia / TasmaniaOceania 1Interference2022-05-22 10:2761762269205912 km3476 km
2332Chapel Hill,Using mag field only - 3 ortho...Australia / QueenslandAsia 1Running2022-05-22 10:2594755231753870 km4955 km
1679BallaratE-field built-in, and now grou...Australia / VictoriaOceania 1Running2022-01-17 08:106444754 km3077 km
2105Port LincolnAustralia / South AustraliaOceania 1Running2022-05-22 06:3184445 km39 km
2648MaroubraAustralia / New South WalesEurope 3Running2022-03-25 11:061005035082648727 km18648 km
2648MaroubraAustralia / New South WalesEurope 2Running2022-03-25 11:061004235082448727 km18648 km
2311BallinaAustralia / New South WalesOceania 1Running2022-05-22 10:25723914337 km1449 km
2359Moorooka, BrisbaneSystem Blue, E and 3 orthogon...Australia / QueenslandAsia 1Running2022-05-22 10:259055676434368 km5162 km
886Moffat Beach, Sunshine CoastAustralia / QueenslandEurope 3Running2022-03-25 11:05282039015212966 km17189 km
886Moffat Beach, Sunshine CoastAustralia / QueenslandEurope 2Running2022-03-25 11:05282039016212966 km17189 km
886Moffat Beach, Sunshine CoastAustralia / QueenslandAfrica 1Running2022-05-22 10:2590132049220 km9685 km
886Moffat Beach, Sunshine CoastAustralia / QueenslandSouth America 1Running2022-05-22 10:2590052045220 km11446 km
966Darwin - Alawa200mm ferrites to test, was 30...Australia / Northern TerritoryOceania 1Running2022-05-22 10:2876702065321971 km3037 km
2353WhyallaMostly relying on e field ante...Australia / South AustraliaAfrica 1Running2022-05-22 10:251068887220 km8888 km
2353WhyallaMostly relying on e field ante...Australia / South AustraliaEurope 1Running2022-05-22 10:281092904220 km9042 km
1016Paringa, South Australia300mm ferrite Hfield/200mm Efi...Australia / South AustraliaOceania 1Running2022-05-22 10:282642188131890 km4188 km
1363Brisbane Nth 2System RED H Field only 2m loo...Australia / QueenslandOceania 1Interference2022-05-21 03:04768111266 km5000 km
2066MordiallocAustralia / VictoriaOceania 1Offline2022-05-13 13:5426530212501 km4597 km
2139Croydon SouthV9.2 Blue, clean site, quiet P...Australia / VictoriaAfrica 1Running2022-05-22 10:2517881543110 km8927 km
2167HeathmontAustralia / VictoriaAfrica 1Running2022-05-22 10:25992498110 km8272 km
2167HeathmontAustralia / VictoriaSouth America 1Running2022-05-22 10:25987494110 km8366 km
2332Chapel Hill,Using mag field only - 3 ortho...Australia / QueenslandEurope 3Running2022-03-25 11:061307773422518037 km17836 km
2332Chapel Hill,Using mag field only - 3 ortho...Australia / QueenslandEurope 2Running2022-03-25 11:061307673412518037 km17836 km
2332Chapel Hill,Using mag field only - 3 ortho...Australia / QueenslandAfrica 1Running2022-05-22 10:2595125258210 km9629 km
2332Chapel Hill,Using mag field only - 3 ortho...Australia / QueenslandSouth America 1Running2022-05-22 10:2594755231110 km11791 km
2648MaroubraAustralia / New South WalesAfrica 1Running2022-05-22 10:2556351701110 km9290 km
2648MaroubraAustralia / New South WalesEurope 1Running2022-05-22 10:2856041665110 km8398 km
886Moffat Beach, Sunshine CoastAustralia / QueenslandEurope 1Running2022-05-22 10:2791012082000 km0 km
2090EnsayAustralia / VictoriaOceania 1Running2022-05-22 10:28619213013010 km4623 km
2098Neerim EastAustralia / VictoriaOceania 1Running2022-05-22 10:2840374021270584 km3621 km
2139Croydon SouthV9.2 Blue, clean site, quiet P...Australia / VictoriaEurope 3Running2022-03-25 11:0621391860700 km18052 km
2139Croydon SouthV9.2 Blue, clean site, quiet P...Australia / VictoriaEurope 2Running2022-03-25 11:0621391860700 km18052 km
Select your menu language
češtinadanskdeutschελληνικάenglishespañolsuomeksifrançaismagyaritaliano日本語latviskinederlandsenorskмакедонскиpolskiрусскийсрпскиsvenskatürkукраїнський
If your language is not supported and if you want to adapt the menu language, then write an email to info ☺ blitzortung.org.